Location: Bergfeld
(52.0500°N, 11.7833°E)
Time: 05:29:26
(UTC+00:00)

Cosmos 2322 Rocket - Pass Details

Date: 17 February 2020
Orbit: 832 x 851 km, 71.0° (Epoch: 30 March)

Event Time Altitude Azimuth Distance (km) Brightness Sun altitude
Exits shadow 03:56:19 13° 331° (NNW) 2,313 4.3 -23.5°
Maximum altitude 03:57:27 13° 344° (NNW) 2,271 4.4 -23.3°
Drops below altitude 10° 04:00:05 10° 11° (NNE) 2,492 4.9 -22.9°
Sets 04:04:06 0° 39° (NE) 3,428 6.1 -22.3°
